Location: Blackrock Ranger Station
(36.0936°N, 118.2611°W)
Time: 08:09:20
(UTC-07:00)

AO-7 - Pass Details

Date: 27 February 2026
Orbit: 1440 x 1458 km, 102.0° (Epoch: 15 March)

Event Time Altitude Azimuth Distance (km) Brightness Sun altitude
Rises 04:20:39 0° 43° (NE) 4,562 ? -26.0°
Maximum altitude 04:28:31 10° 90° (E) 3,579 ? -24.4°
Drops below altitude 10° 04:28:35 10° 90° (E) 3,579 ? -24.4°
Sets 04:36:16 0° 136° (SE) 4,548 ? -22.9°
